TimeCST,TemperatureF,Dew PointF,Humidity,Sea Level PressureIn,VisibilityMPH,Wind Direction,Wind SpeedMPH,Gust SpeedMPH,PrecipitationIn,Events,Conditions,WindDirDegrees,DateUTC
12:15 AM,3.2,-4.0,72,30.17,10.0,SSW,3.5,-,N/A,,Overcast,200,2013-01-23 06:15:00
12:35 AM,3.2,-4.0,72,30.16,10.0,South,3.5,-,N/A,,Overcast,180,2013-01-23 06:35:00
12:55 AM,3.2,-4.0,72,30.15,10.0,Calm,Calm,-,N/A,,Overcast,0,2013-01-23 06:55:00
1:15 AM,3.2,-2.2,78,30.14,10.0,South,3.5,-,N/A,,Overcast,190,2013-01-23 07:15:00
1:35 AM,3.2,-2.2,78,30.14,10.0,Calm,Calm,-,N/A,,Overcast,0,2013-01-23 07:35:00
1:55 AM,3.2,-2.2,78,30.14,10.0,Calm,Calm,-,N/A,,Overcast,0,2013-01-23 07:55:00
2:15 AM,3.2,-0.4,85,30.14,7.0,South,3.5,-,N/A,Snow,Light Snow,190,2013-01-23 08:15:00
2:35 AM,3.2,-0.4,85,30.13,10.0,South,3.5,-,N/A,Snow,Light Snow,180,2013-01-23 08:35:00
2:55 AM,3.2,-0.4,85,30.12,10.0,South,3.5,-,N/A,Snow,Light Snow,170,2013-01-23 08:55:00
3:15 AM,5.0,-0.4,78,30.13,10.0,South,3.5,-,N/A,,Overcast,190,2013-01-23 09:15:00
3:35 AM,5.0,-0.4,78,30.12,10.0,SSW,3.5,-,N/A,Snow,Light Snow,200,2013-01-23 09:35:00
3:55 AM,5.0,-0.4,78,30.12,10.0,SSW,3.5,-,N/A,Snow,Light Snow,200,2013-01-23 09:55:00
4:15 AM,5.0,-0.4,78,30.11,10.0,Calm,Calm,-,N/A,Snow,Light Snow,0,2013-01-23 10:15:00
4:35 AM,5.0,-0.4,78,30.11,7.0,Calm,Calm,-,N/A,Snow,Light Snow,0,2013-01-23 10:35:00
4:55 AM,3.2,-0.4,85,30.10,10.0,WSW,3.5,-,N/A,Snow,Light Snow,240,2013-01-23 10:55:00
5:15 AM,3.2,-0.4,85,30.11,10.0,Calm,Calm,-,N/A,Snow,Light Snow,0,2013-01-23 11:15:00
5:35 AM,3.2,-0.4,85,30.11,10.0,Calm,Calm,-,N/A,,Mostly Cloudy,0,2013-01-23 11:35:00
5:55 AM,3.2,-0.4,85,30.11,5.0,Calm,Calm,-,N/A,Snow,Light Snow,0,2013-01-23 11:55:00
6:15 AM,3.2,-0.4,85,30.11,5.0,Calm,Calm,-,N/A,Snow,Light Snow,0,2013-01-23 12:15:00
6:35 AM,3.2,-0.4,85,30.11,5.0,Calm,Calm,-,N/A,Snow,Light Snow,0,2013-01-23 12:35:00
6:55 AM,3.2,-0.4,85,30.12,3.0,Calm,Calm,-,N/A,Snow,Light Snow,0,2013-01-23 12:55:00
7:15 AM,5.0,1.4,85,30.11,4.0,West,5.8,-,N/A,Snow,Light Snow,270,2013-01-23 13:15:00
7:55 AM,3.2,1.4,92,30.12,5.0,West,6.9,-,N/A,Snow,Light Snow,270,2013-01-23 13:55:00
8:15 AM,3.2,-0.4,85,30.13,1.8,West,4.6,-,N/A,Snow,Light Snow,280,2013-01-23 14:15:00
8:35 AM,3.2,-0.4,85,30.14,10.0,WNW,5.8,-,N/A,Snow,Light Snow,290,2013-01-23 14:35:00
8:55 AM,3.2,-0.4,85,30.14,10.0,WNW,9.2,-,N/A,,Clear,300,2013-01-23 14:55:00
9:15 AM,5.0,1.4,85,30.14,10.0,WNW,10.4,-,N/A,,Clear,300,2013-01-23 15:15:00
9:35 AM,5.0,1.4,85,30.16,10.0,WNW,9.2,-,N/A,,Clear,300,2013-01-23 15:35:00
9:55 AM,6.8,1.4,79,30.17,10.0,WNW,10.4,-,N/A,,Clear,290,2013-01-23 15:55:00
10:15 AM,6.8,1.4,79,30.17,10.0,WNW,15.0,20.7,N/A,,Scattered Clouds,290,2013-01-23 16:15:00
10:35 AM,8.6,1.4,73,30.20,5.0,NW,19.6,26.5,N/A,,Haze,310,2013-01-23 16:35:00
10:55 AM,6.8,-0.4,72,30.21,4.0,NW,19.6,28.8,N/A,,Haze,320,2013-01-23 16:55:00
11:15 AM,5.0,-4.0,66,30.21,4.0,NW,24.2,28.8,N/A,,Haze,320,2013-01-23 17:15:00
11:35 AM,5.0,-4.0,66,30.22,4.0,NW,24.2,-,N/A,,Haze,320,2013-01-23 17:35:00
11:55 AM,5.0,-5.8,61,30.23,7.0,NW,21.9,27.6,N/A,,Clear,320,2013-01-23 17:55:00
12:15 PM,5.0,-5.8,61,30.24,5.0,NW,31.1,36.8,N/A,,Haze,310,2013-01-23 18:15:00
12:35 PM,5.0,-7.6,56,30.24,5.0,NNW,29.9,35.7,N/A,,Haze,330,2013-01-23 18:35:00
12:55 PM,3.2,-7.6,61,30.24,5.0,NW,26.5,34.5,N/A,,Haze,320,2013-01-23 18:55:00
1:15 PM,3.2,-7.6,61,30.25,7.0,NW,28.8,32.2,N/A,,Clear,320,2013-01-23 19:15:00
1:35 PM,3.2,-9.4,56,30.26,10.0,NW,25.3,33.4,N/A,,Clear,320,2013-01-23 19:35:00
1:55 PM,1.4,-9.4,61,30.27,10.0,NW,24.2,31.1,N/A,,Clear,320,2013-01-23 19:55:00
2:15 PM,1.4,-9.4,61,30.28,10.0,NW,24.2,31.1,N/A,,Clear,320,2013-01-23 20:15:00
2:35 PM,1.4,-11.2,56,30.30,10.0,NW,24.2,31.1,N/A,,Clear,320,2013-01-23 20:35:00
2:55 PM,-0.4,-13.0,55,30.31,10.0,NW,20.7,27.6,N/A,,Clear,320,2013-01-23 20:55:00
3:15 PM,-0.4,-13.0,55,30.33,10.0,NW,19.6,-,N/A,,Clear,310,2013-01-23 21:15:00
3:35 PM,-0.4,-13.0,55,30.35,10.0,NW,17.3,-,N/A,,Clear,320,2013-01-23 21:35:00
3:55 PM,-0.4,-13.0,55,30.36,10.0,NW,18.4,21.9,N/A,,Clear,320,2013-01-23 21:55:00
4:15 PM,-0.4,-14.8,51,30.37,10.0,NNW,13.8,-,N/A,,Clear,330,2013-01-23 22:15:00
4:35 PM,-0.4,-14.8,51,30.38,10.0,NW,18.4,23.0,N/A,,Clear,320,2013-01-23 22:35:00
4:55 PM,-2.2,-14.8,55,30.41,10.0,NW,16.1,-,N/A,,Clear,320,2013-01-23 22:55:00
5:15 PM,-4.0,-14.8,60,30.42,10.0,NW,12.7,-,N/A,,Clear,310,2013-01-23 23:15:00
5:35 PM,-4.0,-14.8,60,30.44,10.0,NW,12.7,-,N/A,,Clear,310,2013-01-23 23:35:00
5:55 PM,-4.0,-14.8,60,30.44,10.0,NW,15.0,-,N/A,,Clear,320,2013-01-23 23:55:00
6:15 PM,-5.8,-14.8,65,30.45,10.0,NW,11.5,-,N/A,,Clear,320,2013-01-24 00:15:00
6:35 PM,-5.8,-14.8,65,30.46,10.0,NW,12.7,-,N/A,,Clear,320,2013-01-24 00:35:00
6:55 PM,-5.8,-16.6,60,30.48,10.0,NW,10.4,-,N/A,,Clear,320,2013-01-24 00:55:00
7:15 PM,-7.6,-16.6,65,30.48,10.0,NW,11.5,-,N/A,,Clear,320,2013-01-24 01:15:00
7:35 PM,-7.6,-16.6,65,30.49,10.0,NW,11.5,-,N/A,,Clear,320,2013-01-24 01:35:00
7:55 PM,-7.6,-16.6,65,30.49,10.0,NNW,11.5,-,N/A,,Clear,330,2013-01-24 01:55:00
8:15 PM,-7.6,-16.6,65,30.51,10.0,NNW,11.5,-,N/A,,Clear,330,2013-01-24 02:15:00
8:35 PM,-7.6,-16.6,65,30.52,10.0,NNW,9.2,-,N/A,,Clear,340,2013-01-24 02:35:00
8:55 PM,-9.4,-16.6,71,30.51,10.0,NNW,8.1,-,N/A,,Clear,340,2013-01-24 02:55:00
9:15 PM,-9.4,-18.4,65,30.52,10.0,North,9.2,-,N/A,,Clear,350,2013-01-24 03:15:00
9:35 PM,-9.4,-18.4,65,30.53,10.0,North,5.8,-,N/A,,Clear,360,2013-01-24 03:35:00
9:55 PM,-9.4,-18.4,65,30.54,10.0,North,9.2,-,N/A,,Clear,350,2013-01-24 03:55:00
10:15 PM,-9.4,-18.4,65,30.56,10.0,North,6.9,-,N/A,,Clear,350,2013-01-24 04:15:00
10:35 PM,-9.4,-18.4,65,30.56,10.0,North,10.4,-,N/A,,Clear,360,2013-01-24 04:35:00
10:55 PM,-9.4,-18.4,65,30.57,10.0,North,6.9,-,N/A,,Clear,360,2013-01-24 04:55:00
11:15 PM,-9.4,-18.4,65,30.57,10.0,North,9.2,-,N/A,,Clear,10,2013-01-24 05:15:00
11:35 PM,-9.4,-18.4,65,30.58,10.0,North,5.8,-,N/A,,Clear,10,2013-01-24 05:35:00